STARLINK-36705, 67712

Orbit data source: Space-Track

STARLINK-36705, 67712 is a payload satellite owned by SpaceX/Seattle (US) in SSO that was launched on Sat, 07 Feb 2026 UTC via an FALCON 9 launch vehicle from the Air Force Western Test Range (AFWTR). Payload-class satellites include a variety of spacecraft equipped with specific instruments for various scientific and technological missions. These include communications satellites like Starlink; space stations such as the ISS; scientific satellites like the Hubble; Earth observation satellites from companies like Planet Labs, Umbra, and HawkEye 360; GPS; miniature CubeSats for education and research; and military/defense satellites.

Loading next visibility...
Identifier
67712, 2026-025V
Orbit
SSO
Country
Flag of USUS
Related business
Manufacturer
SpaceX/Seattle
Mission
Operational spacecraft
Bus & Motor
STARLINK V2MO, Unknown motor
Mass
575 kg wet, ~530 kg dry
Launch date (UTC)
2026-02-07 (2 months ago)
Launch vehicle
FALCON 9
Launch site
Air Force Western Test Range (AFWTR)
Object type
Payload
Rocket body
Debris
Shape & HBR
Unknown shape, 17.7 m
Radar Cross Section
RCS unknown

Expand to show TLE details & history
Last TLE update: 1 day ago

TLE from 1 day ago
0 STARLINK-36705
1 67712U 26025V   26103.29744282  .00010063  00000-0  31353-3 0  9996
2 67712  97.2851 215.4549 0001412  84.4797 275.6607 15.33451578 11315
Epoch: 2026-04-13T07:08Z
TLE epoch observation values (Epoch: 2026-04-13T07:08:19.059Z)
Latitude
-0.00001°
Longitude
-93.11458°
Altitude
468.54 km
Speed
7.632 km/s
True Right ascension
14h 21m 49s
True Declination
0° 00' 00"
Sunlit
Object was in full shadow at epoch
Visualization orbit readout
Latitude
Unknown
Longitude
Unknown
Altitude
Unknown
Speed
Unknown
Apparent Right ascension
Unknown
Apparent Declination
Unknown
Sunlit
N/A
Visualization observer readout
Local Sidereal Time
15:40:30
Azimuth
Unknown
Elevation
Unknown
Doppler factor
Unknown
Orbital elements
Apogee altitude
463.432 km
Perigee altitude
461.5 km
Semi-major axis
6,840.603 km
Eccentricity
0.00014
Inclination
97.2851°
RAAN
215.4549°
Arg. of periapsis
84.4797°
True anomaly
275.6446°
Mean anomaly
275.6607°
Eccentric anomaly
275.65265°
Mean motion
3.8362 °/min
Orbital period
93.84 mins
BSTAR
0.00031353
Loading maneuver chart data...
Computing Atmospheric mass density...
Loading historical data...
Loading historical data...
Loading historical data...
Loading historical data...
Loading historical data...
Loading historical data...
Loading historical data...

Documentation

Showing up to 5 results
|